Showing default

O3B FM19, 44113

Orbit data source: Space-Track

O3B FM19, 44113 is a payload satellite owned by O3B SES (JE) that was launched on Thu, 04 Apr 2019 UTC via a SOYUZ-ST-B launch vehicle from the French Guiana (FRGUI). Payload-class satellites include a variety of spacecraft equipped with specific instruments for various scientific and technological missions. These include communications satellites like Starlink; space stations such as the ISS; scientific satellites like the Hubble; Earth observation satellites from companies like Planet Labs, Umbra, and HawkEye 360; GPS; miniature CubeSats for education and research; and military/defense satellites.

Loading next visibility...
Identifier
44113, 2019-020B
Orbit
Active
Country
Flag of UnknownUnknown / O3B
Related business
Manufacturer
Thales Alenia
Mission
Operational Commercial Communications
Bus & Motor
PRISMA?, LS-400 AOCS?
Mass
700 kg wet, ~500 kg dry
Launch date (UTC)
2019-04-04 (7 years ago)
Launch vehicle
SOYUZ-ST-B
Launch site
French Guiana (FRGUI)
Object type
Payload
Rocket body
Debris
Shape & HBR
Trap Box + 2 Pan, 6.0 m
Radar Cross Section
21.980 m², Large (>1 m²)

Expand to show TLE details & history
Last TLE update: 8 hours ago

TLE from 8 hours ago
0 O3B FM19
1 44113U 19020B   25343.54299317 -.00000023  00000-0  00000-0 0  9998
2 44113   0.0536  18.7348 0004491 274.0876  67.1309  5.00115785121958
Epoch: 2025-12-09T13:01Z
TLE epoch observation values (Epoch: 2025-12-09T13:01:54.609Z)
Latitude
-0.01609°
Longitude
85.9963°
Altitude
8,061.854 km
Speed
5.255 km/s
True Right ascension
00h 00m 00s
True Declination
0° 00' 58"
Sunlit
Object was in daylight at epoch
Visualization orbit readout
Latitude
Unknown
Longitude
Unknown
Altitude
Unknown
Speed
Unknown
Apparent Right ascension
Unknown
Apparent Declination
Unknown
Sunlit
N/A
Visualization observer readout
Local Sidereal Time
19:41:20
Azimuth
Unknown
Elevation
Unknown
Doppler factor
Unknown
Orbital elements
Apogee altitude
8,075.431 km
Perigee altitude
8,062.455 km
Semi-major axis
14,447.08 km
Eccentricity
0.00045
Inclination
0.0536°
RAAN
18.7348°
Arg. of periapsis
274.0876°
True anomaly
67.17833°
Mean anomaly
67.1309°
Eccentric anomaly
67.15461°
Mean motion
1.24989 °/min
Orbital period
288.02 mins
BSTAR
0
Loading maneuver chart data...
Computing Atmospheric mass density...
Loading historical data...
Loading historical data...
Loading historical data...
Loading historical data...
Loading historical data...
Loading historical data...
Loading historical data...
Other satellites on launch #20 in the year 2019 (2019-04-04 UTC)

Documentation

Showing up to 5 results
|